Time,TemperatureF,DewpointF,PressureIn,WindDirection,WindDirectionDegrees,WindSpeedMPH,WindSpeedGustMPH,Humidity,HourlyPrecipIn,Conditions,Clouds,dailyrainin,SoftwareType,DateUTC
2013-10-10 00:13:00,66.8,51.0,29.89,SSE,153,3.0,10.0,57,0.00,,,0.00,weatherlink.com 1.10,2013-10-10 06:13:00,
2013-10-10 00:28:00,66.7,51.0,29.89,SSE,159,3.0,12.0,57,0.00,,,0.00,weatherlink.com 1.10,2013-10-10 06:28:00,
2013-10-10 00:43:00,66.5,51.0,29.89,SSE,151,8.0,12.0,58,0.00,,,0.00,weatherlink.com 1.10,2013-10-10 06:43:00,
2013-10-10 00:58:00,66.3,51.0,29.90,SE,143,3.0,12.0,59,0.00,,,0.00,weatherlink.com 1.10,2013-10-10 06:58:00,
2013-10-10 01:13:00,65.9,51.0,29.90,SE,145,5.0,9.0,60,0.00,,,0.00,weatherlink.com 1.10,2013-10-10 07:13:00,
2013-10-10 01:28:00,65.7,51.0,29.90,SSE,148,5.0,9.0,60,0.00,,,0.00,weatherlink.com 1.10,2013-10-10 07:28:00,
2013-10-10 01:43:00,65.3,51.0,29.89,SE,141,2.0,11.0,61,0.00,,,0.00,weatherlink.com 1.10,2013-10-10 07:43:00,
2013-10-10 01:58:00,65.0,52.0,29.90,SE,145,2.0,8.0,62,0.00,,,0.00,weatherlink.com 1.10,2013-10-10 07:58:00,
2013-10-10 02:13:00,64.7,52.0,29.90,SE,145,2.0,7.0,63,0.00,,,0.00,weatherlink.com 1.10,2013-10-10 08:13:00,
2013-10-10 02:28:00,64.4,52.0,29.90,SSE,153,2.0,8.0,64,0.00,,,0.00,weatherlink.com 1.10,2013-10-10 08:28:00,
2013-10-10 02:43:00,64.2,52.0,29.90,SSE,149,5.0,7.0,65,0.00,,,0.00,weatherlink.com 1.10,2013-10-10 08:43:00,
2013-10-10 02:58:00,63.8,52.0,29.90,SSE,149,4.0,9.0,66,0.00,,,0.00,weatherlink.com 1.10,2013-10-10 08:58:00,
2013-10-10 03:13:00,63.3,52.0,29.90,SSE,152,1.0,7.0,67,0.00,,,0.00,weatherlink.com 1.10,2013-10-10 09:13:00,
2013-10-10 03:28:00,63.1,52.0,29.90,SSE,149,3.0,6.0,68,0.00,,,0.00,weatherlink.com 1.10,2013-10-10 09:28:00,
2013-10-10 03:43:00,62.5,52.0,29.90,SSE,147,2.0,7.0,69,0.00,,,0.00,weatherlink.com 1.10,2013-10-10 09:43:00,
2013-10-10 03:58:00,62.0,52.0,29.90,SE,145,4.0,6.0,71,0.00,,,0.00,weatherlink.com 1.10,2013-10-10 09:58:00,
2013-10-10 04:13:00,61.6,52.0,29.89,SSE,147,2.0,8.0,71,0.00,,,0.00,weatherlink.com 1.10,2013-10-10 10:13:00,
2013-10-10 04:28:00,61.3,53.0,29.89,SSE,149,2.0,8.0,73,0.00,,,0.00,weatherlink.com 1.10,2013-10-10 10:28:00,
2013-10-10 04:43:00,61.2,52.0,29.89,SSE,149,5.0,7.0,73,0.00,,,0.00,weatherlink.com 1.10,2013-10-10 10:43:00,
2013-10-10 04:59:00,61.0,53.0,29.89,SSE,149,5.0,7.0,74,0.00,,,0.00,weatherlink.com 1.10,2013-10-10 10:59:00,
2013-10-10 05:14:00,60.7,53.0,29.89,SE,146,2.0,8.0,75,0.00,,,0.00,weatherlink.com 1.10,2013-10-10 11:14:00,
2013-10-10 05:29:00,60.3,53.0,29.89,SE,145,1.0,7.0,76,0.00,,,0.00,weatherlink.com 1.10,2013-10-10 11:29:00,
2013-10-10 05:44:00,60.2,53.0,29.89,SE,146,2.0,5.0,77,0.00,,,0.00,weatherlink.com 1.10,2013-10-10 11:44:00,
2013-10-10 05:59:00,60.2,53.0,29.89,SE,146,0.0,3.0,77,0.00,,,0.00,weatherlink.com 1.10,2013-10-10 11:59:00,
2013-10-10 06:14:00,59.0,53.0,29.89,SE,146,0.0,2.0,79,0.00,,,0.00,weatherlink.com 1.10,2013-10-10 12:14:00,
2013-10-10 06:29:00,58.8,53.0,29.90,SE,146,1.0,5.0,81,0.00,,,0.00,weatherlink.com 1.10,2013-10-10 12:29:00,
2013-10-10 06:44:00,59.1,53.0,29.91,SE,145,0.0,0.0,80,0.00,,,0.00,weatherlink.com 1.10,2013-10-10 12:44:00,
2013-10-10 06:59:00,58.7,53.0,29.90,SE,146,0.0,1.0,81,0.00,,,0.00,weatherlink.com 1.10,2013-10-10 12:59:00,
2013-10-10 07:14:00,58.9,53.0,29.90,SE,146,1.0,5.0,81,0.00,,,0.00,weatherlink.com 1.10,2013-10-10 13:14:00,
2013-10-10 07:29:00,59.4,54.0,29.91,SE,145,0.0,4.0,81,0.00,,,0.00,weatherlink.com 1.10,2013-10-10 13:29:00,
2013-10-10 07:44:00,61.0,55.0,29.91,SE,146,3.0,6.0,80,0.00,,,0.00,weatherlink.com 1.10,2013-10-10 13:44:00,
2013-10-10 07:59:00,62.5,56.0,29.92,SSE,154,3.0,10.0,78,0.00,,,0.00,weatherlink.com 1.10,2013-10-10 13:59:00,
2013-10-10 08:14:00,63.9,56.0,29.92,SSE,160,2.0,9.0,76,0.00,,,0.00,weatherlink.com 1.10,2013-10-10 14:14:00,
2013-10-10 08:29:00,65.2,57.0,29.92,SSE,164,9.0,11.0,75,0.00,,,0.00,weatherlink.com 1.10,2013-10-10 14:29:00,
2013-10-10 08:44:00,67.1,58.0,29.92,South,169,4.0,8.0,73,0.00,,,0.00,weatherlink.com 1.10,2013-10-10 14:44:00,
2013-10-10 08:59:00,69.1,59.0,29.92,South,181,3.0,9.0,70,0.00,,,0.00,weatherlink.com 1.10,2013-10-10 14:59:00,
2013-10-10 09:14:00,70.6,59.0,29.91,South,178,5.0,13.0,67,0.00,,,0.00,weatherlink.com 1.10,2013-10-10 15:14:00,
2013-10-10 09:29:00,71.3,59.0,29.91,South,182,6.0,10.0,66,0.00,,,0.00,weatherlink.com 1.10,2013-10-10 15:29:00,
2013-10-10 09:44:00,72.1,60.0,29.91,South,172,6.0,11.0,65,0.00,,,0.00,weatherlink.com 1.10,2013-10-10 15:44:00,
2013-10-10 09:59:00,73.0,60.0,29.90,SSE,153,6.0,13.0,64,0.00,,,0.00,weatherlink.com 1.10,2013-10-10 15:59:00,
2013-10-10 10:14:00,74.1,61.0,29.90,SSE,162,16.0,16.0,63,0.00,,,0.00,weatherlink.com 1.10,2013-10-10 16:14:00,
2013-10-10 10:29:00,74.6,61.0,29.90,SSE,166,8.0,14.0,62,0.00,,,0.00,weatherlink.com 1.10,2013-10-10 16:29:00,
2013-10-10 10:44:00,75.0,61.0,29.89,South,177,5.0,16.0,61,0.00,,,0.00,weatherlink.com 1.10,2013-10-10 16:44:00,
2013-10-10 10:59:00,75.7,61.0,29.89,SSE,157,6.0,19.0,61,0.00,,,0.00,weatherlink.com 1.10,2013-10-10 16:59:00,
2013-10-10 11:14:00,75.7,61.0,29.88,SSW,208,9.0,17.0,60,0.00,,,0.00,weatherlink.com 1.10,2013-10-10 17:14:00,
2013-10-10 11:29:00,76.5,61.0,29.87,SSW,197,7.0,15.0,59,0.00,,,0.00,weatherlink.com 1.10,2013-10-10 17:29:00,
2013-10-10 11:44:00,77.4,61.0,29.87,SE,144,6.0,16.0,58,0.00,,,0.00,weatherlink.com 1.10,2013-10-10 17:44:00,
2013-10-10 12:00:00,78.2,62.0,29.86,SSE,154,12.0,19.0,57,0.00,,,0.00,weatherlink.com 1.10,2013-10-10 18:00:00,
2013-10-10 12:15:00,79.7,62.0,29.84,SSW,195,8.0,14.0,54,0.00,,,0.00,weatherlink.com 1.10,2013-10-10 18:15:00,
2013-10-10 12:30:00,80.0,62.0,29.83,South,183,10.0,11.0,54,0.00,,,0.00,weatherlink.com 1.10,2013-10-10 18:30:00,
2013-10-10 12:45:00,80.6,62.0,29.82,South,190,10.0,18.0,53,0.00,,,0.00,weatherlink.com 1.10,2013-10-10 18:45:00,
2013-10-10 13:00:00,81.0,62.0,29.81,SE,141,8.0,21.0,52,0.00,,,0.00,weatherlink.com 1.10,2013-10-10 19:00:00,
2013-10-10 13:15:00,81.4,61.0,29.80,SSE,164,10.0,29.0,51,0.00,,,0.00,weatherlink.com 1.10,2013-10-10 19:15:00,
2013-10-10 13:30:00,81.8,61.0,29.79,SSE,168,5.0,24.0,49,0.00,,,0.00,weatherlink.com 1.10,2013-10-10 19:30:00,
2013-10-10 13:45:00,82.7,61.0,29.79,SE,135,9.0,22.0,48,0.00,,,0.00,weatherlink.com 1.10,2013-10-10 19:45:00,
2013-10-10 14:00:00,83.1,60.0,29.77,SE,134,9.0,21.0,46,0.00,,,0.00,weatherlink.com 1.10,2013-10-10 20:00:00,
2013-10-10 14:15:00,83.7,59.0,29.76,SSE,167,6.0,22.0,43,0.00,,,0.00,weatherlink.com 1.10,2013-10-10 20:15:00,
2013-10-10 14:30:00,83.6,59.0,29.76,SE,143,14.0,23.0,43,0.00,,,0.00,weatherlink.com 1.10,2013-10-10 20:30:00,
2013-10-10 14:45:00,84.0,59.0,29.75,SE,143,10.0,18.0,43,0.00,,,0.00,weatherlink.com 1.10,2013-10-10 20:45:00,
2013-10-10 15:00:00,83.7,60.0,29.74,SSE,156,5.0,21.0,44,0.00,,,0.00,weatherlink.com 1.10,2013-10-10 21:00:00,
2013-10-10 15:15:00,83.7,60.0,29.73,SSE,156,7.0,24.0,44,0.00,,,0.00,weatherlink.com 1.10,2013-10-10 21:15:00,
2013-10-10 15:30:00,83.8,60.0,29.73,SE,144,14.0,25.0,44,0.00,,,0.00,weatherlink.com 1.10,2013-10-10 21:30:00,
2013-10-10 15:45:00,83.9,60.0,29.73,SSE,164,2.0,22.0,44,0.00,,,0.00,weatherlink.com 1.10,2013-10-10 21:45:00,
2013-10-10 16:00:00,84.0,59.0,29.72,SE,146,16.0,21.0,43,0.00,,,0.00,weatherlink.com 1.10,2013-10-10 22:00:00,
2013-10-10 16:15:00,83.6,59.0,29.72,SSE,164,9.0,18.0,44,0.00,,,0.00,weatherlink.com 1.10,2013-10-10 22:15:00,
2013-10-10 16:30:00,83.3,60.0,29.72,SSE,153,17.0,20.0,45,0.00,,,0.00,weatherlink.com 1.10,2013-10-10 22:30:00,
2013-10-10 16:45:00,83.2,60.0,29.72,SE,140,10.0,19.0,45,0.00,,,0.00,weatherlink.com 1.10,2013-10-10 22:45:00,
2013-10-10 17:00:00,82.5,60.0,29.72,SSE,148,8.0,20.0,46,0.00,,,0.00,weatherlink.com 1.10,2013-10-10 23:00:00,
2013-10-10 17:15:00,82.0,60.0,29.71,South,172,2.0,21.0,47,0.00,,,0.00,weatherlink.com 1.10,2013-10-10 23:15:00,
2013-10-10 17:45:00,81.0,60.0,29.71,SSE,158,3.0,16.0,49,0.00,,,0.00,weatherlink.com 1.10,2013-10-10 23:45:00,
2013-10-10 18:00:00,80.4,59.0,29.71,South,170,6.0,22.0,49,0.00,,,0.00,weatherlink.com 1.10,2013-10-11 00:00:00,
2013-10-10 18:15:00,79.7,59.0,29.71,SE,143,5.0,20.0,50,0.00,,,0.00,weatherlink.com 1.10,2013-10-11 00:15:00,
2013-10-10 18:30:00,79.2,59.0,29.71,SSE,159,8.0,15.0,51,0.00,,,0.00,weatherlink.com 1.10,2013-10-11 00:30:00,
2013-10-10 18:45:00,78.8,60.0,29.71,SSE,160,4.0,15.0,52,0.00,,,0.00,weatherlink.com 1.10,2013-10-11 00:45:00,
2013-10-10 19:00:00,78.4,60.0,29.71,South,177,10.0,17.0,53,0.00,,,0.00,weatherlink.com 1.10,2013-10-11 01:00:00,
2013-10-10 19:15:00,77.8,60.0,29.70,SE,137,10.0,19.0,54,0.00,,,0.00,weatherlink.com 1.10,2013-10-11 01:15:00,
2013-10-10 19:30:00,77.1,60.0,29.70,SE,146,9.0,18.0,55,0.00,,,0.00,weatherlink.com 1.10,2013-10-11 01:30:00,
2013-10-10 19:45:00,77.1,60.0,29.70,SSE,155,5.0,21.0,55,0.00,,,0.00,weatherlink.com 1.10,2013-10-11 01:45:00,
2013-10-10 20:00:00,76.5,60.0,29.70,SE,141,1.0,20.0,56,0.00,,,0.00,weatherlink.com 1.10,2013-10-11 02:00:00,
2013-10-10 20:15:00,75.9,59.0,29.70,SSE,158,6.0,14.0,57,0.00,,,0.00,weatherlink.com 1.10,2013-10-11 02:15:00,
2013-10-10 20:30:00,75.7,60.0,29.70,SSE,162,6.0,21.0,58,0.00,,,0.00,weatherlink.com 1.10,2013-10-11 02:30:00,
2013-10-10 20:45:00,75.3,60.0,29.70,SE,139,10.0,16.0,59,0.00,,,0.00,weatherlink.com 1.10,2013-10-11 02:45:00,
2013-10-10 21:00:00,75.0,60.0,29.70,SSE,156,3.0,17.0,60,0.00,,,0.00,weatherlink.com 1.10,2013-10-11 03:00:00,
2013-10-10 21:15:00,74.7,60.0,29.70,SSE,154,11.0,18.0,60,0.00,,,0.00,weatherlink.com 1.10,2013-10-11 03:15:00,
2013-10-10 21:30:00,74.4,60.0,29.70,SSE,162,8.0,16.0,61,0.00,,,0.00,weatherlink.com 1.10,2013-10-11 03:30:00,
2013-10-10 21:45:00,74.0,60.0,29.70,SSE,149,9.0,15.0,62,0.00,,,0.00,weatherlink.com 1.10,2013-10-11 03:45:00,
2013-10-10 22:00:00,73.6,60.0,29.70,SSE,160,6.0,17.0,62,0.00,,,0.00,weatherlink.com 1.10,2013-10-11 04:00:00,
2013-10-10 22:15:00,73.4,60.0,29.70,SE,137,9.0,15.0,63,0.00,,,0.00,weatherlink.com 1.10,2013-10-11 04:15:00,
2013-10-10 22:30:00,73.1,60.0,29.71,SSE,161,5.0,15.0,64,0.00,,,0.00,weatherlink.com 1.10,2013-10-11 04:30:00,
2013-10-10 22:45:00,72.6,60.0,29.71,SSE,152,3.0,12.0,65,0.00,,,0.00,weatherlink.com 1.10,2013-10-11 04:45:00,
2013-10-10 23:00:00,72.2,60.0,29.71,South,172,5.0,12.0,66,0.00,,,0.00,weatherlink.com 1.10,2013-10-11 05:00:00,
2013-10-10 23:15:00,72.1,60.0,29.71,SSE,162,4.0,11.0,66,0.00,,,0.00,weatherlink.com 1.10,2013-10-11 05:15:00,
2013-10-10 23:30:00,72.0,60.0,29.70,SSE,160,5.0,12.0,67,0.00,,,0.00,weatherlink.com 1.10,2013-10-11 05:30:00,
2013-10-10 23:45:00,72.1,61.0,29.70,SSE,150,4.0,12.0,67,0.00,,,0.00,weatherlink.com 1.10,2013-10-11 05:45:00,